Regional Weather Roundup
Issued by NWS

Home | Current Version | Previous Version | Graphics & Text | Print | Product List | Glossary On
Versions: 1 2 3 4 5 6 7 8 9 10 11 12 13 14 15 16 17 18 19 20 21 22 23 24 25 26 27 28 29 30 31 32 33 34 35 36 37 38 39 40 41 42 43 44 45 46 47 48 49 50
000
ASUS43 KLOT 280902
RWRIL

ILLINOIS REGIONAL WEATHER ROUNDUP
NATIONAL WEATHER SERVICE CHICAGO/ROMEOVILLE IL
400 AM CDT TUE APR 28 2015

NOTE: "FAIR" INDICATES FEW OR NO CLOUDS BELOW 12,000 FEET WITH NO
SIGNIFICANT WEATHER AND/OR OBSTRUCTIONS TO VISIBILITY.

* THESE STATIONS ARE NOT UNDER NWS QUALITY CONTROL. THEY ALSO MAY NOT
  REPORT WEATHER SUCH AS PRECIPITATION OR FOG.

ILZ001-002-007-009-015-016-024-281000-
NORTHWEST ILLINOIS

CITY           SKY/WX    TMP DP  RH WIND       PRES   REMARKS
MOLINE         CLEAR     42  35  76 CALM      30.13R
STERLING*      CLEAR     39  34  81 E3        30.15S
$$

ILZ003-004-008-010-011-017-018-281000-
NORTH CENTRAL ILLINOIS

CITY           SKY/WX    TMP DP  RH WIND       PRES   REMARKS
ROCKFORD       CLEAR     38  34  85 CALM      30.17R
$$

ILZ005-006-012>014-019>023-281000-
NORTHEAST ILLINOIS

CITY           SKY/WX    TMP DP  RH WIND       PRES   REMARKS
CHICAGO-OHARE  CLEAR     37  33  85 CALM      30.13S
CHICAGO-MIDWAY CLEAR     41  34  76 NW3       30.14S
AURORA         CLEAR     34  29  82 CALM      30.15R
WAUKEGAN       CLEAR     32  30  92 CALM      30.14R
DUPAGE AIRPORT CLEAR     35  32  88 CALM      30.14R
WHEELING       CLEAR     36  31  82 CALM      30.15F
NORTHERLY ISL    N/A     43  34  70 CALM        N/A
$$

LMZ740>746-281000-
SOUTHERN LAKE MICHIGAN

STATION/POSITION SKY/WX   TEMP    WIND        PRES    VSBY  WAVE
                          AIR SEA DIR/SP/G                  HT/PER
                          (F)     (DEG/KT/KT) (MB)    (MI)  (FT/S)
HARRISON CRIB              42     330/  7/  8   N/A
BURNHAM HARBOR             42     330/  3/  8   N/A
CALUMET HARBOR             41     300/  1/  2   N/A
BURNS HARBOR               42     330/  4/  6 1020.7S
MICHIGAN CITY              40     290/  5/  5   N/A
MICHIGAN CITY 6N           40 46  330/  4/  8   N/A           2/ 5
$$

ILZ025>027-034>036-040-047-049-050-058-095>099-281000-
WEST-CENTRAL ILLINOIS

CITY           SKY/WX    TMP DP  RH WIND       PRES   REMARKS
QUINCY         CLEAR     45  35  68 SE5       30.13R
$$

ILZ028>032-037-038-041>044-048-051>054-059>061-281000-
CENTRAL ILLINOIS

CITY           SKY/WX    TMP DP  RH WIND       PRES   REMARKS
DECATUR        CLEAR     38  32  79 N6        30.13R WCI  33
PEORIA         CLEAR     40  35  83 CALM      30.15R
SPRINGFIELD    CLEAR     40  36  86 CALM      30.14R
TAYLORVILLE    NOT AVBL
$$

ILZ033-039-045-046-055>057-062-063-281000-
EAST-CENTRAL ILLINOIS

CITY           SKY/WX    TMP DP  RH WIND       PRES   REMARKS
CHAMPAIGN      CLEAR     37  33  85 NE6       30.12R WCI  32
MATTOON        CLEAR     35  32  88 N6        30.11R WCI  30
$$

ILZ079-100>102-281000-
SOUTHWEST ILLINOIS

CITY           SKY/WX    TMP DP  RH WIND       PRES   REMARKS
BELLEVILLE     CLEAR     40  40  99 N3        30.09R
CAHOKIA*       CLEAR     41  39  93 E3        30.10S
$$

ILZ064>066-069>071-074>076-080>082-084>086-088>090-092>094-281000-
SOUTH-CENTRAL ILLINOIS

CITY           SKY/WX    TMP DP  RH WIND       PRES   REMARKS
CARBONDALE     CLEAR     41  36  82 N6        30.07R
MT. VERNON     CLEAR     41  34  75 N5        30.09S
$$

ILZ067-068-072-073-078-083-087-091-281000-
SOUTHEAST ILLINOIS

CITY           SKY/WX    TMP DP  RH WIND       PRES   REMARKS
LAWRENCEVILLE  CLEAR     42  37  82 NE6       30.10R
$$

ABBREVIATIONS USED IN REMARKS
   TC - TEMPERATURE IN CELSIUS
  WCI - WIND CHILL INDEX
   HX - HEAT INDEX
  VSB - VISIBILITY
$$




USA.gov is the U.S. government's official web portal to all federal, state and local government web resources and services.